{"data":{"norad_id":63591,"intl_designator":"2025-076Y","name":"STARLINK-33702","alt_names":[],"object_type":"PAYLOAD","status":"ACTIVE","operator":null,"country":"US","launch_date":"2025-04-14","launch_site_code":"AFETR","launch_vehicle":null,"mission":null,"orbit_class":"UNKNOWN","rcs_meters":null,"size_class":null,"mass_kg":null,"dimensions":null,"purposes":["comms"],"wikipedia_slug":null,"has_3d_model":false,"image_url":null,"decayed_at":null,"tle_current":{"epoch":"2026-09-19T04:06:17.110368Z","epoch_age_seconds":267417,"freshness":"STALE","line1":"1 63591U 25076Y   26262.17103137  .00005995  00000+0  22717-3 0  9994","line2":"2 63591  43.0011 308.7687 0001165 273.2017  86.8701 15.27582465 81429","mean_motion":15.27582465,"eccentricity":0.0001165,"inclination_deg":43.0011,"raan_deg":308.7687,"arg_perigee_deg":273.2017,"mean_anomaly_deg":86.8701,"bstar":0.00022717,"rev_number":8142,"period_min":94.266596599091,"perigee_km":482.24238763251,"apogee_km":483.84104227309,"semimajor_km":6861.1787149528,"source":"CELESTRAK","updated_at":"2026-09-21T09:00:35.049259Z"}}}